| time (UTC) | temp C | wind direction | speed KPH | gust KPH | rain 1hr cm | rain 24hr cm | rain mn cm | humidity % | barometer mb |
| 20260505024612 | 11 | 329 | 1.6 | 4.8 | 0.00 | 0.00 | 0.00 | 65 | 1010.4 |
| 20260505020112 | 12 | 21 | 1.6 | 4.8 | 0.00 | 0.00 | 0.00 | 61 | 1010.7 |
| 20260505014612 | 12 | 31 | 1.6 | 8.0 | 0.00 | 0.00 | 0.00 | 62 | 1010.7 |
| 20260505011611 | 12 | 66 | 1.6 | 3.2 | 0.00 | 0.00 | 0.00 | 61 | 1010.8 |
| 20260505010111 | 12 | 64 | 3.2 | 6.4 | 0.00 | 0.00 | 0.00 | 60 | 1010.9 |
| 20260505004611 | 13 | 20 | 3.2 | 4.8 | 0.00 | 0.00 | 0.00 | 60 | 1011.0 |
| 20260505003111 | 13 | 57 | 0.0 | 4.8 | 0.00 | 0.00 | 0.00 | 58 | 1011.1 |
| 20260505001611 | 13 | 32 | 3.2 | 6.4 | 0.00 | 0.00 | 0.00 | 58 | 1011.3 |
| 20260505000111 | 13 | 22 | 3.2 | 11.3 | 0.00 | 0.00 | 0.00 | 59 | 1011.4 |
| 20260504233111 | 13 | 343 | 3.2 | 4.8 | 0.00 | 0.00 | 0.00 | 60 | 1011.8 |
| 20260504231611 | 13 | 347 | 0.0 | 3.2 | 0.00 | 0.00 | 0.00 | 59 | 1011.7 |
| 20260504230111 | 13 | 38 | 4.8 | 8.0 | 0.00 | 0.00 | 0.00 | 59 | 1011.8 |
| 20260504224611 | 13 | 306 | 0.0 | 4.8 | 0.00 | 0.00 | 0.00 | 59 | 1012.0 |
| 20260504223110 | 13 | 309 | 3.2 | 4.8 | 0.00 | 0.00 | 0.00 | 60 | 1012.1 |
| 20260504221611 | 14 | 305 | 3.2 | 4.8 | 0.00 | 0.00 | 0.00 | 58 | 1012.2 |
| 20260504214610 | 15 | 312 | 3.2 | 4.8 | 0.00 | 0.00 | 0.00 | 55 | 1012.4 |
| 20260504213110 | 16 | 329 | 1.6 | 4.8 | 0.00 | 0.00 | 0.00 | 50 | 1012.6 |
| 20260504211612 | 17 | 117 | 4.8 | 12.9 | 0.00 | 0.00 | 0.00 | 49 | 1012.6 |
| 20260504210110 | 16 | 74 | 3.2 | 12.9 | 0.00 | 0.00 | 0.00 | 50 | 1012.5 |
| 20260504204610 | 16 | 64 | 1.6 | 9.7 | 0.00 | 0.00 | 0.00 | 53 | 1012.7 |
| 20260504203109 | 17 | 28 | 0.0 | 4.8 | 0.00 | 0.00 | 0.00 | 52 | 1012.8 |
| 20260504201610 | 17 | 65 | 3.2 | 8.0 | 0.00 | 0.00 | 0.00 | 49 | 1012.8 |
| 20260504200109 | 17 | 88 | 3.2 | 8.0 | 0.00 | 0.00 | 0.00 | 49 | 1012.9 |
| 20260504194610 | 17 | 81 | 6.4 | 12.9 | 0.00 | 0.00 | 0.00 | 50 | 1012.8 |
| 20260504191609 | 17 | 95 | 0.0 | 3.2 | 0.00 | 0.00 | 0.00 | 51 | 1012.9 |
| 20260504190109 | 17 | 74 | 0.0 | 0.0 | 0.00 | 0.00 | 0.00 | 51 | 1012.9 |
| 20260504184609 | 18 | 101 | 0.0 | 3.2 | 0.00 | 0.00 | 0.00 | 50 | 1012.7 |
| 20260504181609 | 19 | 143 | 0.0 | 3.2 | 0.00 | 0.00 | 0.00 | 48 | 1012.7 |
| 20260504180110 | 20 | 144 | 0.0 | 0.0 | 0.00 | 0.00 | 0.00 | 48 | 1012.5 |
| 20260504174609 | 21 | 166 | 0.0 | 1.6 | 0.00 | 0.00 | 0.00 | 46 | 1012.6 |
| 20260504173108 | 21 | 155 | 1.6 | 9.7 | 0.00 | 0.00 | 0.00 | 46 | 1012.6 |
| 20260504171609 | 21 | 213 | 1.6 | 6.4 | 0.00 | 0.00 | 0.00 | 45 | 1012.5 |
| 20260504170108 | 22 | 96 | 4.8 | 9.7 | 0.00 | 0.00 | 0.00 | 44 | 1012.4 |
| 20260504150112 | 25 | 166 | 6.4 | 17.7 | 0.00 | 0.00 | 0.00 | 40 | 1012.7 |
| 20260504140112 | 25 | 141 | 4.8 | 16.1 | 0.00 | 0.00 | 0.00 | 41 | 1013.4 |
| 20260504130111 | 24 | 154 | 8.0 | 22.5 | 0.00 | 0.00 | 0.00 | 45 | 1014.1 |
| 20260504120111 | 23 | 199 | 12.9 | 19.3 | 0.00 | 0.00 | 0.00 | 47 | 1014.5 |
| 20260504110110 | 22 | 161 | 4.8 | 9.7 | 0.00 | 0.00 | 0.00 | 51 | 1014.9 |
| 20260504100110 | 21 | 154 | 8.0 | 19.3 | 0.00 | 0.00 | 0.00 | 53 | 1015.7 |
| 20260504090110 | 19 | 143 | 4.8 | 11.3 | 0.00 | 0.00 | 0.00 | 56 | 1015.8 |
| 20260504081609 | 19 | 154 | 8.0 | 11.3 | 0.00 | 0.00 | 0.00 | 56 | 1015.7 |
| 20260504080109 | 18 | 195 | 1.6 | 11.3 | 0.00 | 0.00 | 0.00 | 57 | 1015.6 |
| 20260504070109 | 16 | 147 | 6.4 | 14.5 | 0.00 | 0.00 | 0.00 | 58 | 1015.4 |
| 20260504060109 | 15 | 128 | 3.2 | 12.9 | 0.00 | 0.00 | 0.00 | 61 | 1015.4 |
| 20260504050113 | 12 | 71 | 4.8 | 8.0 | 0.00 | 0.00 | 0.00 | 66 | 1015.3 |
| 20260504044614 | 11 | 165 | 3.2 | 6.4 | 0.00 | 0.00 | 0.00 | 70 | 1015.3 |
| 20260504043113 | 11 | 138 | 0.0 | 3.2 | 0.00 | 0.00 | 0.00 | 67 | 1015.3 |
| 20260504040113 | 11 | 78 | 6.4 | 12.9 | 0.00 | 0.00 | 0.00 | 66 | 1015.1 |
| 20260504034613 | 11 | 84 | 3.2 | 6.4 | 0.00 | 0.00 | 0.00 | 67 | 1015.4 |
| 20260504033113 | 10 | 81 | 1.6 | 4.8 | 0.00 | 0.00 | 0.00 | 67 | 1015.5 |
| 20260504031613 | 11 | 40 | 0.0 | 6.4 | 0.00 | 0.00 | 0.00 | 65 | 1015.4 |
| 20260504030112 | 11 | 110 | 0.0 | 1.6 | 0.00 | 0.00 | 0.00 | 64 | 1015.6 |